GW3084 Weather Reports


Display with metric or nautical units.
time (UTC)temp
F
wind
direction
speed
MPH
gust
MPH
rain 1hr
in
rain 24hr
in
rain mn
in
humidity
%
barometer
mb
20260901230021 87 248 2.0 7.0 0.00 0.00 0.00 68 1012.3
20260901225018 84 237 2.0 9.0 0.00 0.00 0.00 75 1012.4
20260901224035 81 136 2.0 3.0 0.00 0.00 0.00 77 1012.3
20260901223032 84 122 1.0 3.0 0.00 0.00 0.00 75 1012.3
20260901222028 83 128 2.0 6.0 0.00 0.00 0.00 76 1012.3
20260901221025 84 132 3.0 8.0 0.00 0.00 0.00 74 1012.3
20260901220022 83 124 2.0 7.0 0.00 0.00 0.00 76 1012.4
20260901215019 83 124 2.0 4.0 0.00 0.00 0.00 77 1012.4
20260901214035 83 127 2.0 7.0 0.00 0.00 0.00 79 1012.5
20260901213032 82 155 2.0 7.0 0.00 0.00 0.00 80 1012.4
20260901212030 82 144 3.0 8.0 0.00 0.00 0.00 79 1012.5
20260901211026 82 159 3.0 8.0 0.00 0.00 0.00 79 1012.5
20260901210022 81 129 3.0 8.0 0.00 0.00 0.00 80 1012.6
20260901205021 80 137 3.0 7.0 0.00 0.00 0.00 79 1012.7
20260901204016 81 128 3.0 8.0 0.00 0.00 0.00 79 1012.9
20260901203054 81 136 2.0 4.0 0.00 0.00 0.00 79 1012.9
20260901202031 80 141 3.0 9.0 0.00 0.00 0.00 79 1012.8
20260901201026 81 131 3.0 7.0 0.00 0.00 0.00 77 1012.8
20260901200023 83 140 3.0 6.0 0.00 0.00 0.00 75 1012.9
20260901195020 83 153 2.0 4.0 0.00 0.00 0.00 77 1013.0
20260901194037 83 136 3.0 8.0 0.00 0.00 0.00 78 1013.2
20260901193033 83 129 3.0 6.0 0.00 0.00 0.00 77 1013.2
20260901192031 84 154 2.0 6.0 0.00 0.00 0.00 76 1013.3
20260901191027 83 133 2.0 8.0 0.00 0.00 0.00 78 1013.3
20260901190044 83 145 3.0 7.0 0.00 0.00 0.00 77 1013.2
20260901185020 84 152 3.0 7.0 0.00 0.00 0.00 77 1013.3
20260901184017 85 137 2.0 7.0 0.00 0.00 0.00 76 1013.5
20260901183036 85 127 2.0 4.0 0.00 0.00 0.00 76 1013.4
20260901182032 84 140 2.0 6.0 0.00 0.00 0.00 78 1013.5
20260901181028 84 132 3.0 7.0 0.00 0.00 0.00 78 1013.5
20260901180025 84 138 3.0 6.0 0.00 0.00 0.00 77 1013.5
20260901175022 82 129 3.0 6.0 0.00 0.00 0.00 78 1013.6
20260901174018 83 126 3.0 7.0 0.00 0.00 0.00 76 1013.8
20260901173057 84 135 2.0 6.0 0.00 0.00 0.00 77 1014.0
20260901172032 84 111 3.0 4.0 0.00 0.00 0.00 76 1013.9
20260901171029 85 130 2.0 4.0 0.00 0.00 0.00 75 1014.0
20260901170046 84 117 2.0 4.0 0.00 0.00 0.00 76 1014.0
20260901165023 83 107 2.0 7.0 0.00 0.00 0.00 77 1014.0
20260901164102 84 106 2.0 4.0 0.00 0.00 0.00 76 1014.1
20260901163017 83 121 2.0 4.0 0.00 0.00 0.00 77 1014.0
20260901162034 82 112 2.0 4.0 0.00 0.00 0.00 78 1014.2
20260901161030 83 113 2.0 3.0 0.00 0.00 0.00 76 1014.3
20260901160026 84 128 2.0 4.0 0.00 0.00 0.00 75 1014.3
20260901155023 85 115 1.0 4.0 0.00 0.00 0.00 76 1014.2
20260901154020 82 111 2.0 4.0 0.00 0.00 0.00 79 1014.3
20260901153017 81 125 1.0 4.0 0.00 0.00 0.00 80 1014.3
20260901152115 81 110 2.0 3.0 0.00 0.00 0.00 77 1014.3
20260901151030 83 108 2.0 6.0 0.00 0.00 0.00 76 1014.2
20260901150027 84 119 2.0 3.0 0.00 0.00 0.00 75 1014.0
20260901145024 84 119 1.0 2.0 0.00 0.00 0.00 75 1014.0
20260901144020 82 119 1.0 2.0 0.00 0.00 0.00 78 1013.8
20260901143017 82 141 1.0 2.0 0.00 0.00 0.00 75 1013.7
20260901142034 85 114 1.0 3.0 0.00 0.00 0.00 71 1013.7
20260901141031 87 45 1.0 4.0 0.00 0.00 0.00 74 1013.8
20260901140027 86 343 1.0 4.0 0.00 0.00 0.00 75 1013.8
20260901135024 85 344 1.0 4.0 0.00 0.00 0.00 79 1013.9
20260901134021 83 270 1.0 4.0 0.00 0.00 0.00 81 1013.9
20260901133039 82 256 1.0 2.0 0.00 0.00 0.00 83 1013.9
20260901132035 81 267 1.0 3.0 0.00 0.00 0.00 85 1013.9
20260901131032 81 272 1.0 4.0 0.00 0.00 0.00 87 1013.9
20260901130029 80 266 0.0 3.0 0.00 0.00 0.00 88 1013.9
20260901125025 79 275 1.0 3.0 0.00 0.00 0.00 90 1013.8
20260901124042 78 278 1.0 3.0 0.00 0.00 0.00 91 1013.5
20260901123020 77 275 1.0 4.0 0.00 0.00 0.00 92 1013.5
20260901122037 77 277 1.0 4.0 0.00 0.00 0.00 93 1013.4
20260901121033 76 273 1.0 3.0 0.00 0.00 0.00 94 1013.3
20260901120030 76 272 1.0 6.0 0.00 0.00 0.00 95 1013.2
20260901115026 75 273 1.0 3.0 0.00 0.00 0.00 96 1013.2
20260901114024 75 273 2.0 4.0 0.00 0.00 0.00 97 1013.1
20260901113020 74 276 2.0 4.0 0.00 0.00 0.00 97 1013.0
20260901112018 74 276 1.0 3.0 0.00 0.01 0.00 97 1012.8
20260901111033 74 272 1.0 2.0 0.00 0.04 0.00 97 1012.8
20260901110031 74 278 1.0 3.0 0.00 0.04 0.00 97 1012.7
20260901105027 74 280 2.0 4.0 0.00 0.04 0.00 96 1012.7
20260901104024 74 274 2.0 6.0 0.00 0.04 0.00 96 1012.7
20260901103020 75 277 2.0 6.0 0.00 0.04 0.00 96 1012.6
20260901102035 75 273 2.0 6.0 0.00 0.04 0.00 96 1012.6
20260901101030 75 274 2.0 6.0 0.00 0.04 0.00 95 1012.6
20260901100026 75 275 2.0 4.0 0.00 0.04 0.00 95 1012.8
20260901095044 75 269 3.0 6.0 0.00 0.05 0.00 95 1012.8
20260901094019 75 277 2.0 4.0 0.00 0.05 0.00 95 1012.7
20260901093035 75 276 2.0 4.0 0.00 0.05 0.00 95 1012.8
20260901092032 75 278 2.0 4.0 0.00 0.05 0.00 95 1012.6
20260901091029 75 280 2.0 6.0 0.00 0.05 0.00 95 1012.7
20260901090045 75 273 2.0 4.0 0.00 0.05 0.00 94 1012.8
20260901085017 75 278 2.0 6.0 0.00 0.05 0.00 95 1012.7
20260901084034 74 276 2.0 4.0 0.00 0.05 0.00 95 1012.6
20260901083029 74 273 2.0 4.0 0.00 0.05 0.00 95 1012.5
20260901082025 74 274 2.0 4.0 0.00 0.05 0.00 95 1012.4
20260901081041 74 274 2.0 4.0 0.00 0.05 0.00 96 1012.5
20260901080015 73 267 2.0 3.0 0.00 0.05 0.00 97 1012.5
20260901075032 73 261 1.0 6.0 0.00 0.05 0.00 97 1012.6
20260901074028 72 269 1.0 2.0 0.00 0.05 0.00 96 1012.5
20260901073044 72 261 0.0 2.0 0.00 0.05 0.00 96 1012.5
20260901072021 72 181 0.0 1.0 0.00 0.05 0.00 96 1012.5
20260901071039 71 179 0.0 1.0 0.00 0.05 0.00 96 1012.5
20260901070034 72 0.0 0.0 0.00 0.05 0.00 95 1012.7
20260901065030 72 144 0.0 1.0 0.00 0.05 0.00 95 1012.7
20260901064107 72 143 0.0 1.0 0.00 0.05 0.00 95 1012.7
20260901063043 72 0.0 0.0 0.00 0.05 0.00 94 1012.5
20260901062021 72 0.0 0.0 0.00 0.06 0.00 92 1012.6
20260901061017 73 0.0 0.0 0.00 0.06 0.00 92 1012.5
20260901060035 73 147 0.0 1.0 0.00 0.06 0.00 93 1012.6
20260901055030 73 156 0.0 1.0 0.00 0.06 0.00 93 1012.7
20260901054027 73 192 0.0 1.0 0.00 0.06 0.00 94 1012.8
20260901053023 73 188 0.0 1.0 0.00 0.06 0.00 93 1012.7
20260901052021 73 166 0.0 1.0 0.00 0.06 0.00 93 1012.6
20260901051017 73 152 0.0 1.0 0.00 0.06 0.00 92 1012.6
20260901050034 73 143 0.0 1.0 0.00 0.06 0.00 93 1012.6
20260901045030 73 150 0.0 1.0 0.00 0.06 0.06 93 1012.7
20260901044027 73 0.0 0.0 0.00 0.06 0.06 92 1012.8
20260901043044 73 0.0 0.0 0.00 0.06 0.06 91 1012.8
20260901042040 73 154 0.0 1.0 0.00 0.06 0.06 91 1012.8
20260901041019 73 145 0.0 1.0 0.00 0.06 0.06 91 1012.8
20260901040034 73 145 1.0 1.0 0.00 0.06 0.06 89 1012.7
20260901035051 74 128 0.0 1.0 0.00 0.06 0.06 88 1012.8
20260901034047 74 137 0.0 1.0 0.00 0.06 0.06 90 1012.8
20260901033024 74 138 0.0 1.0 0.00 0.06 0.06 87 1012.8
20260901032021 74 137 0.0 1.0 0.00 0.06 0.06 84 1012.8
20260901031018 75 152 0.0 1.0 0.00 0.06 0.06 85 1012.7
20260901030035 75 160 0.0 1.0 0.00 0.06 0.06 86 1012.9
20260901025032 75 0.0 0.0 0.00 0.06 0.06 84 1012.9
20260901024028 75 118 0.0 1.0 0.00 0.06 0.06 83 1012.9
20260901023025 75 123 0.0 1.0 0.00 0.06 0.06 83 1012.8
20260901022022 75 135 0.0 1.0 0.00 0.06 0.06 82 1012.8
20260901021019 75 160 0.0 1.0 0.00 0.06 0.06 83 1012.8
20260901020016 75 150 0.0 1.0 0.00 0.06 0.06 82 1012.7
20260901015033 76 145 1.0 2.0 0.00 0.06 0.06 81 1012.6
20260901014029 76 144 0.0 1.0 0.00 0.06 0.06 82 1012.5
20260901013026 77 125 0.0 1.0 0.00 0.06 0.06 80 1012.3
20260901012044 78 143 1.0 2.0 0.00 0.06 0.06 76 1012.0
20260901011020 80 151 1.0 2.0 0.00 0.06 0.06 78 1011.9
20260901010017 80 156 0.0 2.0 0.00 0.06 0.06 78 1011.7
20260901005034 80 160 0.0 2.0 0.00 0.06 0.06 77 1011.7
20260901004031 82 139 1.0 3.0 0.00 0.06 0.06 74 1011.8
20260901003047 83 231 1.0 4.0 0.00 0.06 0.06 75 1011.6
20260901002024 83 219 1.0 3.0 0.00 0.06 0.06 75 1011.4
20260901001021 84 231 2.0 6.0 0.00 0.06 0.06 74 1011.4
20260901000018 84 229 2.0 8.0 0.00 0.06 0.06 73 1011.4
20260831235035 85 250 2.0 4.0 0.00 0.06 0.06 72 1011.3
20260831234053 85 233 1.0 4.0 0.00 0.06 0.06 72 1011.0
20260831233028 85 216 1.0 3.0 0.00 0.06 0.06 72 1010.9
20260831232025 85 195 1.0 6.0 0.00 0.06 0.06 72 1010.7
20260831231043 85 209 2.0 9.0 0.00 0.06 0.06 71 1011.0